SCP
0 -0 -0 -0 -0 -0 -0 -0 -0 -0 -0 -0 -0 0 0 0 0 0 0 0 -0 -0 -0 -0 -0 -0 -0 -0 -0 -0 -0 -0 -0 -0 -0 -0 0 -0 0 0 0 0 0
-0 0 -0 -0 -0 -0 -0 -0 -0 0 0 0 0 0 0 0 0 0 0 0 0 0 0 0 0 0 0 0 0 -0 -0 -0 -0 -0 -0 -0 0 0 0 0 0 0 0
-0 0 0 0 -0 -0 0 0 0 0 0 0 0 0 0 0 0 0 0 0 0 0 0 0 0 0 0 0 0 0 0 0 -0 0 0 0 0 0 0 0 0 0 0
0 0 0 -0 0 -0 0 0 0 0 0 0 0 0 0 0 0 0 0 0 0 0 0 0 0 0 0 0 0 0 0 0 0 0 0 0 0 0 1 0 0 0 0
0 0 0 0 -0 0 0 0 0 0 0 0 0 0 0 0 0 0 0 0 0 0 0 0 0 0 0 0 0 0 0 0 0 0 0 0 0 1 0 0 0 0 0
0 0 0 0 0 0 0 0 0 0 0 0 0 0 0 0 0 0 0 0 0 0 0 0 0 0 0 0 0 0 0 0 0 0 0 0 0 0 0 0 0 0 0
-0 0 0 0 0 0 0 0 0 0 0 0 0 0 0 0 0 0 0 0 0 0 0 -0 -0 -0 -0 -0 0 0 0 0 0 0 0 0 0 0 0 0 0 0 0
-0 0 0 0 0 0 0 0 0 0 0 0 0 0 0 0 0 0 0 -0 -0 -0 -0 -0 -0 -0 -0 -0 -0 -0 0 0 0 0 0 0 0 0 0 0 0 0 0
-0 0 0 0 0 0 0 0 0 0 0 0 0 0 0 0 -0 -0 -0 -0 -0 -0 -0 -0 -0 -0 -0 -0 0 0 0 0 0 0 0 0 0 0 0 0 0 0 0
0 0 0 0 0 0 0 0 0 0 0 0 0 0 0 0 -0 -0 -0 -0 -0 -0 -0 -0 -0 -0 -0 -0 0 0 0 0 0 0 0 0 0 0 0 0 0 0 0
0 0 0 0 0 0 0 0 0 0 0 0 0 0 0 -0 -0 0 -0 -0 -0 -0 -0 0 -0 -0 -0 -0 -0 -0 -0 -0 -0 0 0 0 0 0 0 0 0 0 -0
-0 0 0 0 0 0 0 0 0 0 -0 -0 0 0 0 0 0 0 0 0 0 0 0 0 0 -0 -0 -0 -0 -0 -0 -0 -0 0 0 0 0 0 0 0 0 -0 -0
1 1 0 0 0 0 -0 -0 -0 -0 -0 -0 0 0 0 0 0 0 0 0 0 0 0 0 0 -0 -0 -0 -0 -0 -0 -0 0 0 0 0 0 0 0 0 0 0 0
-0 0 0 -0 0 -0 -0 -0 -0 0 -0 0 0 0 0 0 0 0 0 0 0 0 0 0 0 0 -0 -0 -0 -0 -0 0 0 0 0 0 0 0 0 0 0 0 0
-0 -0 -0 -0 -0 0 0 0 0 0 0 0 0 0 0 0 0 0 0 0 0 0 0 0 0 0 -0 -0 -0 -0 0 0 0 0 0 0 0 0 0 0 0 0 0
0 0 0 0 0 0 0 0 0 0 0 0 0 0 0 0 0 0 0 0 0 0 0 0 0 -0 -0 -0 0 0 0 0 0 0 0 0 0 0 0 0 0 0 0
0 0 0 0 0 0 0 0 0 0 0 0 0 0 0 0 0 0 0 0 0 0 0 0 0 0 -0 0 0 0 0 0 0 0 0 0 0 0 0 0 0 0 0
0 0 0 0 0 0 0 0 0 0 -0 0 0 0 0 0 0 0 0 0 0 0 0 0 0 -0 -0 -0 -0 0 0 0 0 0 0 0 0 0 0 0 0 0 0
0 0 0 0 0 0 0 0 0 0 0 0 0 0 0 0 0 0 0 0 0 0 0 0 0 -0 -0 0 0 0 0 0 0 0 0 0 0 0 0 0 0 0 0
0 0 0 0 0 0 0 0 0 0 0 0 0 0 0 0 0 0 0 0 0 0 0 0 0 0 0 0 0 0 0 0 0 0 0 0 0 0 0 0 0 0 0
0 0 0 0 0 0 0 0 0 0 0 0 0 0 0 0 0 0 0 0 0 0 -0 0 0 0 0 0 0 0 0 0 0 0 0 0 0 0 0 0 0 0 0
0 0 0 0 0 0 0 0 0 0 0 0 0 0 0 0 0 0 0 0 0 0 0 0 0 0 0 0 0 0 0 0 0 0 0 0 0 0 0 0 0 0 0
0 0 0 0 0 0 0 0 0 0 0 0 0 0 0 0 0 0 0 0 0 0 0 0 0 0 0 0 -0 -0 -0 0 0 0 0 0 0 0 0 0 0 0 0
0 0 0 0 0 0 0 0 0 0 0 0 0 0 0 0 0 0 0 0 0 0 0 0 0 0 0 0 0 -0 -0 -0 -0 0 0 0 0 0 -0 -0 0 0 0
0 0 0 0 0 0 0 0 0 0 0 0 0 0 0 0 0 0 0 0 0 0 0 0 0 0 0 0 0 0 -0 0 0 0 0 0 0 0 0 0 0 0 0
0 0 -0 0 -0 -0 -0 -0 -0 0 0 0 0 0 0 0 0 0 0 0 0 0 0 0 0 0 0 0 0 0 0 0 0 0 0 0 0 0 0 -0 -0 0 0
Wind_Speed_500mb
29 31 32 30 29 27 27 27 28 27 26 27 28 28 30 30 30 28 27 26 25 24 23 22 21 20 20 19 18 18 18 17 17 17 16 17 20 4 7 9 11 20 18
31 34 36 34 32 30 29 29 29 29 29 29 30 31 31 32 32 31 29 27 25 26 26 26 25 25 25 25 24 24 23 22 20 17 19 19 18 19 12 10 9 16 19
36 37 38 36 34 34 33 33 31 31 30 30 32 34 35 34 31 30 30 29 28 27 27 27 28 28 29 29 29 28 28 26 22 12 12 29 13 5 13 14 13 16 19
34 37 36 35 34 33 34 33 33 33 34 35 37 36 34 32 32 30 28 28 28 28 29 29 30 31 32 33 34 34 34 32 29 22 17 22 16 11 7 16 21 26 30
37 37 37 35 36 37 39 38 38 38 38 37 35 34 33 33 30 30 29 28 28 28 29 31 32 33 35 36 37 38 39 38 36 29 20 13 11 15 23 21 25 31 33
37 38 39 39 38 38 39 39 39 38 37 35 32 35 33 31 30 28 27 25 26 27 29 31 34 36 36 36 37 36 39 39 34 29 18 11 23 23 32 37 35 38 40
42 41 40 39 39 39 39 38 36 35 34 32 33 31 32 30 28 26 25 25 27 28 31 34 38 41 40 39 40 42 44 32 34 31 26 23 27 32 35 42 48 47 47
39 45 46 43 42 41 38 36 35 33 33 32 29 29 27 26 25 26 29 29 29 31 31 36 42 45 43 42 44 52 45 24 27 29 30 32 40 39 40 41 44 44 48
27 43 46 46 44 39 35 32 32 33 31 30 30 28 28 23 25 27 31 32 32 34 35 40 41 39 41 51 54 59 47 28 22 25 32 37 46 46 44 42 46 49 52
35 43 49 48 45 42 39 35 36 31 30 29 27 24 21 23 24 22 30 32 35 31 32 32 32 33 39 48 53 53 35 33 30 29 26 29 36 37 43 48 52 57 60
44 52 46 43 40 40 40 41 36 33 32 31 26 18 20 21 22 24 22 28 29 25 23 23 29 42 46 55 58 52 43 43 48 42 29 30 30 42 38 49 54 58 64
60 64 58 49 35 35 40 40 36 31 26 23 20 21 15 18 24 22 14 19 24 17 13 15 25 57 57 65 61 53 52 50 45 45 40 35 45 34 35 37 34 57 61
78 75 57 48 39 36 34 35 27 24 23 22 16 18 13 12 10 12 8 10 20 17 27 36 40 60 53 64 65 64 61 58 54 50 33 32 38 39 37 36 44 37 32
98 58 78 49 42 40 36 37 29 22 21 25 12 10 12 16 15 13 13 5 14 25 32 41 46 55 56 66 74 73 67 51 40 36 34 35 34 40 40 34 35 32 31
64 81 71 47 40 42 33 43 51 49 36 21 6 11 16 22 20 19 18 16 19 27 36 44 53 49 58 72 77 63 49 45 49 48 43 35 21 38 33 28 24 28 35
39 44 42 47 34 50 49 48 42 33 19 13 17 7 12 20 26 21 20 18 25 37 39 46 48 56 67 74 65 52 48 44 39 20 13 21 29 15 30 29 26 26 37
48 52 36 42 39 34 40 39 30 29 21 17 21 26 24 24 27 26 32 41 40 34 46 51 56 65 68 59 49 43 40 42 29 20 15 21 28 25 32 31 31 29 30
49 24 25 34 36 38 40 41 34 16 33 32 27 32 27 30 34 40 45 30 34 40 47 57 66 63 48 42 36 36 42 31 35 23 11 16 20 25 31 38 42 48 39
17 25 28 38 33 29 26 20 17 15 16 17 19 24 33 40 39 40 39 38 42 48 54 62 56 51 43 29 33 40 40 25 39 20 11 23 21 27 33 31 34 37 38
13 13 27 32 26 13 17 16 3 10 18 20 25 33 41 41 42 44 42 42 44 52 55 60 43 40 28 32 35 37 34 23 17 31 11 13 21 30 25 34 32 37 40
32 26 19 11 5 4 10 14 6 32 32 29 23 24 28 32 39 42 36 42 49 47 54 57 40 32 27 31 35 42 36 17 1 25 21 19 21 29 28 34 33 40 38
27 24 19 13 10 15 10 13 25 26 19 20 21 24 26 28 35 26 36 38 39 47 50 38 26 27 27 28 31 27 29 20 42 27 27 17 24 31 29 36 36 38 28
28 21 17 11 7 2 10 15 19 19 26 28 40 31 28 28 27 34 36 35 34 39 47 27 19 23 27 25 25 22 14 14 55 36 35 28 28 27 31 37 36 28 28
30 18 19 20 10 20 21 24 30 26 21 33 33 36 34 35 39 29 30 27 28 36 34 24 21 21 19 23 29 23 20 20 20 31 46 37 26 27 36 33 31 29 25
19 19 20 19 24 23 25 31 43 40 35 41 43 41 29 25 24 26 26 21 28 33 27 26 20 22 19 23 25 29 27 27 27 34 42 52 36 35 27 29 32 28 29
31 31 32 33 30 45 41 39 27 30 35 41 40 34 26 17 25 23 22 27 28 34 22 19 23 24 22 21 24 20 18 24 30 33 40 49 38 37 24 31 40 36 31
Wind_Direction_500mb
137 146 145 145 139 133 128 124 124 121 117 114 112 110 107 106 105 102 96 91 85 79 74 69 63 56 51 44 35 28 21 18 17 17 8 350 353 352 19 36 346 337 334
146 149 147 148 144 139 134 130 126 123 120 117 114 111 108 105 101 96 92 87 83 78 72 62 55 46 37 30 25 19 11 6 6 15 15 11 345 312 287 308 345 337 318
149 151 149 149 146 141 137 133 130 126 122 120 118 114 109 103 97 94 91 86 79 71 65 59 49 40 34 27 20 14 8 4 1 3 11 1 356 263 254 277 319 322 316
150 148 147 146 144 140 136 133 132 130 128 126 122 116 112 107 102 96 87 80 74 65 55 46 38 32 24 18 13 8 3 359 358 356 325 13 4 332 273 285 301 303 305
147 145 147 149 147 144 141 139 138 136 132 127 122 117 112 107 99 93 86 74 64 56 48 41 34 28 21 15 9 4 359 353 352 351 354 311 18 316 300 303 305 304 299
149 150 150 150 147 144 140 137 138 134 129 127 123 119 113 107 101 90 78 66 57 50 43 35 27 21 16 11 6 5 5 1 3 5 5 299 334 326 311 305 301 299 297
151 152 150 148 144 141 138 138 133 131 129 127 122 115 112 106 97 84 69 59 51 42 33 27 22 18 15 9 2 1 9 24 39 32 25 355 334 317 303 298 297 298 297
147 153 151 148 146 143 143 137 136 134 130 124 119 113 104 96 82 72 53 43 36 31 27 21 17 17 12 6 0 356 358 19 16 7 354 348 335 320 309 298 296 295 295
173 158 152 150 149 145 141 135 134 128 122 113 104 94 79 71 63 46 32 33 28 28 27 25 26 19 1 352 348 340 340 346 328 332 339 336 326 312 305 298 295 295 296
167 168 161 157 153 149 143 137 131 122 113 102 92 95 77 66 44 42 34 32 33 35 36 33 21 11 352 344 336 339 348 332 317 309 307 326 315 305 305 304 303 300 298
171 172 168 160 155 149 141 134 129 126 119 109 94 58 63 45 35 28 25 33 25 31 35 20 17 352 345 347 349 351 343 331 329 321 298 322 295 330 318 317 310 308 310
179 168 161 165 146 150 139 133 129 125 130 117 98 88 70 58 52 46 50 20 23 18 2 344 316 343 346 348 349 340 331 325 327 314 317 290 296 311 318 315 314 318 318
184 163 143 141 115 134 130 128 114 94 105 114 140 109 135 166 207 251 329 353 0 322 309 307 317 336 341 343 336 330 322 316 311 318 320 321 312 307 306 305 313 318 322
28 123 136 122 117 116 113 125 123 122 132 153 176 220 222 238 221 250 284 293 313 306 309 314 321 328 334 333 330 323 319 320 321 312 301 297 301 306 303 303 305 304 312
59 75 102 135 136 133 139 147 141 134 130 143 191 275 244 253 260 287 291 283 307 303 306 310 317 326 324 325 325 328 323 321 308 307 304 304 321 336 328 312 294 301 311
108 118 119 119 139 154 151 156 164 169 182 208 202 226 282 291 293 299 297 301 293 303 299 311 323 323 324 325 329 328 321 327 328 336 336 338 342 297 329 319 319 313 313
153 145 185 169 172 173 178 190 179 187 213 241 258 272 271 289 291 293 298 298 295 311 314 319 323 322 323 326 332 334 338 341 331 321 348 357 326 324 336 334 334 333 330
168 193 213 193 199 199 185 187 193 284 319 320 304 295 282 278 283 294 307 311 312 317 323 324 324 328 333 333 340 348 354 359 11 346 353 343 322 322 322 318 318 308 315
198 221 194 203 193 176 178 189 306 352 350 321 297 274 267 272 283 310 309 310 319 322 325 327 330 334 342 354 350 351 1 36 30 14 359 327 335 318 329 326 335 329 316
253 192 196 195 188 227 265 287 256 306 300 305 296 299 296 293 293 296 298 311 316 323 329 334 330 339 346 350 350 344 355 9 356 351 7 350 347 323 333 334 329 323 314
125 133 138 153 185 191 180 205 255 330 318 306 311 307 300 295 297 296 297 318 321 325 334 334 332 338 348 350 343 346 1 2 182 355 5 7 1 343 330 339 332 321 328
116 120 121 121 144 189 245 272 339 346 353 339 318 305 297 288 291 287 315 315 321 326 332 331 332 338 344 353 351 347 346 5 344 2 5 20 348 6 347 343 335 332 333
117 111 82 82 62 336 343 323 330 329 323 322 322 306 310 308 296 304 312 303 316 320 329 319 318 333 336 357 353 344 343 331 334 337 355 354 347 358 346 345 345 334 340
106 93 67 58 46 7 2 349 341 322 324 320 314 317 315 309 309 296 291 305 302 318 326 306 310 315 334 332 347 348 342 342 350 324 346 357 345 355 340 341 341 331 342
47 46 39 34 36 27 15 357 339 328 320 313 313 313 301 291 299 314 308 300 303 317 316 300 310 314 321 321 332 325 346 357 358 347 341 355 11 13 360 15 8 350 344
37 27 16 6 0 343 342 354 343 319 319 319 320 311 312 305 313 313 303 309 322 326 313 314 316 313 311 312 321 334 359 341 337 335 340 350 349 8 357 351 7 351 343
Wind_Speed_850mb
29 31 32 30 29 27 27 27 28 27 26 27 28 28 30 30 30 28 27 26 25 24 23 22 21 20 20 19 18 18 18 17 17 17 16 17 20 4 7 9 11 20 18
31 34 36 34 32 30 29 29 29 29 29 29 30 31 31 32 32 31 29 27 25 26 26 26 25 25 25 25 24 24 23 22 20 17 19 19 18 19 12 10 9 16 19
36 37 38 36 34 34 33 33 31 31 30 30 32 34 35 34 31 30 30 29 28 27 27 27 28 28 29 29 29 28 28 26 22 12 12 29 13 5 13 14 13 16 19
34 37 36 35 34 33 34 33 33 33 34 35 37 36 34 32 32 30 28 28 28 28 29 29 30 31 32 33 34 34 34 32 29 22 17 22 16 11 7 16 21 26 30
37 37 37 35 36 37 39 38 38 38 38 37 35 34 33 33 30 30 29 28 28 28 29 31 32 33 35 36 37 38 39 38 36 29 20 13 11 15 23 21 25 31 33
37 38 39 39 38 38 39 39 39 38 37 35 32 35 33 31 30 28 27 25 26 27 29 31 34 36 36 36 37 36 39 39 34 29 18 11 23 23 32 37 35 38 40
42 41 40 39 39 39 39 38 36 35 34 32 33 31 32 30 28 26 25 25 27 28 31 34 38 41 40 39 40 42 44 32 34 31 26 23 27 32 35 42 48 47 47
39 45 46 43 42 41 38 36 35 33 33 32 29 29 27 26 25 26 29 29 29 31 31 36 42 45 43 42 44 52 45 24 27 29 30 32 40 39 40 41 44 44 48
27 43 46 46 44 39 35 32 32 33 31 30 30 28 28 23 25 27 31 32 32 34 35 40 41 39 41 51 54 59 47 28 22 25 32 37 46 46 44 42 46 49 52
35 43 49 48 45 42 39 35 36 31 30 29 27 24 21 23 24 22 30 32 35 31 32 32 32 33 39 48 53 53 35 33 30 29 26 29 36 37 43 48 52 57 60
44 52 46 43 40 40 40 41 36 33 32 31 26 18 20 21 22 24 22 28 29 25 23 23 29 42 46 55 58 52 43 43 48 42 29 30 30 42 38 49 54 58 64
60 64 58 49 35 35 40 40 36 31 26 23 20 21 15 18 24 22 14 19 24 17 13 15 25 57 57 65 61 53 52 50 45 45 40 35 45 34 35 37 34 57 61
78 75 57 48 39 36 34 35 27 24 23 22 16 18 13 12 10 12 8 10 20 17 27 36 40 60 53 64 65 64 61 58 54 50 33 32 38 39 37 36 44 37 32
98 58 78 49 42 40 36 37 29 22 21 25 12 10 12 16 15 13 13 5 14 25 32 41 46 55 56 66 74 73 67 51 40 36 34 35 34 40 40 34 35 32 31
64 81 71 47 40 42 33 43 51 49 36 21 6 11 16 22 20 19 18 16 19 27 36 44 53 49 58 72 77 63 49 45 49 48 43 35 21 38 33 28 24 28 35
39 44 42 47 34 50 49 48 42 33 19 13 17 7 12 20 26 21 20 18 25 37 39 46 48 56 67 74 65 52 48 44 39 20 13 21 29 15 30 29 26 26 37
48 52 36 42 39 34 40 39 30 29 21 17 21 26 24 24 27 26 32 41 40 34 46 51 56 65 68 59 49 43 40 42 29 20 15 21 28 25 32 31 31 29 30
49 24 25 34 36 38 40 41 34 16 33 32 27 32 27 30 34 40 45 30 34 40 47 57 66 63 48 42 36 36 42 31 35 23 11 16 20 25 31 38 42 48 39
17 25 28 38 33 29 26 20 17 15 16 17 19 24 33 40 39 40 39 38 42 48 54 62 56 51 43 29 33 40 40 25 39 20 11 23 21 27 33 31 34 37 38
13 13 27 32 26 13 17 16 3 10 18 20 25 33 41 41 42 44 42 42 44 52 55 60 43 40 28 32 35 37 34 23 17 31 11 13 21 30 25 34 32 37 40
32 26 19 11 5 4 10 14 6 32 32 29 23 24 28 32 39 42 36 42 49 47 54 57 40 32 27 31 35 42 36 17 1 25 21 19 21 29 28 34 33 40 38
27 24 19 13 10 15 10 13 25 26 19 20 21 24 26 28 35 26 36 38 39 47 50 38 26 27 27 28 31 27 29 20 42 27 27 17 24 31 29 36 36 38 28
28 21 17 11 7 2 10 15 19 19 26 28 40 31 28 28 27 34 36 35 34 39 47 27 19 23 27 25 25 22 14 14 55 36 35 28 28 27 31 37 36 28 28
30 18 19 20 10 20 21 24 30 26 21 33 33 36 34 35 39 29 30 27 28 36 34 24 21 21 19 23 29 23 20 20 20 31 46 37 26 27 36 33 31 29 25
19 19 20 19 24 23 25 31 43 40 35 41 43 41 29 25 24 26 26 21 28 33 27 26 20 22 19 23 25 29 27 27 27 34 42 52 36 35 27 29 32 28 29
31 31 32 33 30 45 41 39 27 30 35 41 40 34 26 17 25 23 22 27 28 34 22 19 23 24 22 21 24 20 18 24 30 33 40 49 38 37 24 31 40 36 31
Wind_Direction_850mb
137 146 145 145 139 133 128 124 124 121 117 114 112 110 107 106 105 102 96 91 85 79 74 69 63 56 51 44 35 28 21 18 17 17 8 350 353 352 19 36 346 337 334
146 149 147 148 144 139 134 130 126 123 120 117 114 111 108 105 101 96 92 87 83 78 72 62 55 46 37 30 25 19 11 6 6 15 15 11 345 312 287 308 345 337 318
149 151 149 149 146 141 137 133 130 126 122 120 118 114 109 103 97 94 91 86 79 71 65 59 49 40 34 27 20 14 8 4 1 3 11 1 356 263 254 277 319 322 316
150 148 147 146 144 140 136 133 132 130 128 126 122 116 112 107 102 96 87 80 74 65 55 46 38 32 24 18 13 8 3 359 358 356 325 13 4 332 273 285 301 303 305
147 145 147 149 147 144 141 139 138 136 132 127 122 117 112 107 99 93 86 74 64 56 48 41 34 28 21 15 9 4 359 353 352 351 354 311 18 316 300 303 305 304 299
149 150 150 150 147 144 140 137 138 134 129 127 123 119 113 107 101 90 78 66 57 50 43 35 27 21 16 11 6 5 5 1 3 5 5 299 334 326 311 305 301 299 297
151 152 150 148 144 141 138 138 133 131 129 127 122 115 112 106 97 84 69 59 51 42 33 27 22 18 15 9 2 1 9 24 39 32 25 355 334 317 303 298 297 298 297
147 153 151 148 146 143 143 137 136 134 130 124 119 113 104 96 82 72 53 43 36 31 27 21 17 17 12 6 0 356 358 19 16 7 354 348 335 320 309 298 296 295 295
173 158 152 150 149 145 141 135 134 128 122 113 104 94 79 71 63 46 32 33 28 28 27 25 26 19 1 352 348 340 340 346 328 332 339 336 326 312 305 298 295 295 296
167 168 161 157 153 149 143 137 131 122 113 102 92 95 77 66 44 42 34 32 33 35 36 33 21 11 352 344 336 339 348 332 317 309 307 326 315 305 305 304 303 300 298
171 172 168 160 155 149 141 134 129 126 119 109 94 58 63 45 35 28 25 33 25 31 35 20 17 352 345 347 349 351 343 331 329 321 298 322 295 330 318 317 310 308 310
179 168 161 165 146 150 139 133 129 125 130 117 98 88 70 58 52 46 50 20 23 18 2 344 316 343 346 348 349 340 331 325 327 314 317 290 296 311 318 315 314 318 318
184 163 143 141 115 134 130 128 114 94 105 114 140 109 135 166 207 251 329 353 0 322 309 307 317 336 341 343 336 330 322 316 311 318 320 321 312 307 306 305 313 318 322
28 123 136 122 117 116 113 125 123 122 132 153 176 220 222 238 221 250 284 293 313 306 309 314 321 328 334 333 330 323 319 320 321 312 301 297 301 306 303 303 305 304 312
59 75 102 135 136 133 139 147 141 134 130 143 191 275 244 253 260 287 291 283 307 303 306 310 317 326 324 325 325 328 323 321 308 307 304 304 321 336 328 312 294 301 311
108 118 119 119 139 154 151 156 164 169 182 208 202 226 282 291 293 299 297 301 293 303 299 311 323 323 324 325 329 328 321 327 328 336 336 338 342 297 329 319 319 313 313
153 145 185 169 172 173 178 190 179 187 213 241 258 272 271 289 291 293 298 298 295 311 314 319 323 322 323 326 332 334 338 341 331 321 348 357 326 324 336 334 334 333 330
168 193 213 193 199 199 185 187 193 284 319 320 304 295 282 278 283 294 307 311 312 317 323 324 324 328 333 333 340 348 354 359 11 346 353 343 322 322 322 318 318 308 315
198 221 194 203 193 176 178 189 306 352 350 321 297 274 267 272 283 310 309 310 319 322 325 327 330 334 342 354 350 351 1 36 30 14 359 327 335 318 329 326 335 329 316
253 192 196 195 188 227 265 287 256 306 300 305 296 299 296 293 293 296 298 311 316 323 329 334 330 339 346 350 350 344 355 9 356 351 7 350 347 323 333 334 329 323 314
125 133 138 153 185 191 180 205 255 330 318 306 311 307 300 295 297 296 297 318 321 325 334 334 332 338 348 350 343 346 1 2 182 355 5 7 1 343 330 339 332 321 328
116 120 121 121 144 189 245 272 339 346 353 339 318 305 297 288 291 287 315 315 321 326 332 331 332 338 344 353 351 347 346 5 344 2 5 20 348 6 347 343 335 332 333
117 111 82 82 62 336 343 323 330 329 323 322 322 306 310 308 296 304 312 303 316 320 329 319 318 333 336 357 353 344 343 331 334 337 355 354 347 358 346 345 345 334 340
106 93 67 58 46 7 2 349 341 322 324 320 314 317 315 309 309 296 291 305 302 318 326 306 310 315 334 332 347 348 342 342 350 324 346 357 345 355 340 341 341 331 342
47 46 39 34 36 27 15 357 339 328 320 313 313 313 301 291 299 314 308 300 303 317 316 300 310 314 321 321 332 325 346 357 358 347 341 355 11 13 360 15 8 350 344
37 27 16 6 0 343 342 354 343 319 319 319 320 311 312 305 313 313 303 309 322 326 313 314 316 313 311 312 321 334 359 341 337 335 340 350 349 8 357 351 7 351 343